Regional Weather Roundup
Issued by NWS Upton, NY

Current Version | Previous Version | Text Only | Print | Product List | Glossary Off
Versions: 1 2 3 4 5 6 7 8 9 10 11 12 13 14 15 16 17 18 19 20 21 22 23 24 25 26 27 28 29 30 31 32 33 34 35 36 37 38 39 40 41 42 43 44 45 46 47 48 49 50
000 ASUS41 KOKX 160405 RWROKX REGIONAL WEATHER ROUNDUP NATIONAL WEATHER SERVICE NEW YORK NY 1200 AM EDT TUE SEP 16 2014 NOTE: "FAIR" INDICATES FEW OR NO CLOUDS BELOW 12,000 FEET WITH NO SIGNIFICANT WEATHER AND/OR OBSTRUCTIONS TO VISIBILITY. NYZ071-072-176-178-NJZ106-104-160500- NEW YORK CITY METRO AREA CITY SKY/WX TMP DP RH WIND PRES REMARKS CENTRAL PARK PTCLDY 62 51 67 SW5 30.10F LAGUARDIA APRT MOCLDY 64 52 64 S7 30.08F KENNEDY INTL MOCLDY 64 53 67 SW9 30.09F NEWARK/LIBERTY MOCLDY 61 51 70 CALM 30.08F BRNX BOT. GARD N/A 61 52 72 SE3 30.10F TETERBORO PTCLDY 61 51 70 CALM 30.07F $$ NYZ177-179-078>081-160500- LONG ISLAND NEW YORK CITY SKY/WX TMP DP RH WIND PRES REMARKS FARMINGDALE PTCLDY 59 51 75 CALM 30.10S ISLIP MOCLDY 57 50 77 CALM 30.08S SHIRLEY PTCLDY 52 49 89 CALM 30.10F WESTHAMPTON PTCLDY 47 43 86 CALM 30.11F MONTAUK POINT N/A 56 52 86 CALM 30.11F $$ NYZ052-065-067-160500- HUDSON VALLEY CITY SKY/WX TMP DP RH WIND PRES REMARKS WHITE PLAINS PTCLDY 55 50 83 CALM 30.08F NEWBURGH CLEAR 55 50 82 CALM 30.08F MONTGOMERY CLOUDY 52 49 89 CALM 30.07F POUGHKEEPSIE CLOUDY 55 49 80 CALM 30.06F ALBANY CLOUDY 56 47 71 SE3 30.07F $$ NJZ001-105-106-008-010-013-015-019>022-104-160500- NEW JERSEY CITY SKY/WX TMP DP RH WIND PRES REMARKS NEWARK/LIBERTY MOCLDY 61 51 70 CALM 30.08F TETERBORO PTCLDY 61 51 70 CALM 30.07F CALDWELL PTCLDY 54 49 83 CALM 30.09F MORRISTOWN PTCLDY 52 48 87 CALM 30.09F SOMERVILLE MOCLDY 51 48 89 CALM 30.07F LINDEN FAIR 64 55 70 CALM 30.10F SUSSEX PTCLDY 51 49 92 CALM 30.07F ANDOVER N/A 49 48 97 CALM 30.08F TRENTON MOCLDY 59 54 83 S7 30.08F MILLVILLE MOCLDY 54 52 93 CALM 30.09S ATLANTIC CITY PTCLDY 53 51 93 CALM 30.10S WRIGHTSTOWN MOCLDY 54 52 94 SE3 30.07S TOMS RIVER PTCLDY 50 46 87 CALM 30.10S BELMAR PTCLDY 57 48 72 SW5 30.09F $$ PAZ047>061-062-071-160500- EASTERN PENNSYLVANIA CITY SKY/WX TMP DP RH WIND PRES REMARKS PHILADELPHIA CLOUDY 62 51 67 VRB6 30.09S ALLENTOWN PTCLDY 53 49 86 CALM 30.08F SCRANTON CLOUDY 55 47 74 E6 30.06F $$ CTZ002-004>006-009-010-012-RIZ004-006-007-MAZ004-011-015-160500- SOUTHERN NEW ENGLAND IN CT CITY SKY/WX TMP DP RH WIND PRES REMARKS BRADLEY INTL MOCLDY 54 47 77 NW3 30.10S HARTFORD PTCLDY 54 51 90 MISG 30.10S DANBURY PTCLDY 50 47 89 CALM 30.11F WTRBRY/OXFORD MOCLDY 48 41 76 CALM 30.11F BRIDGEPORT PTCLDY 64 51 62 SW6 30.09F MERIDEN PTCLDY 48 45 89 CALM 30.10F NEW HAVEN PTCLDY 54 48 80 CALM 30.10F CHESTER FAIR 52 48 87 CALM 30.10F GROTON PTCLDY 51 49 92 N3 30.09F WILLIMANTIC PTCLDY 49 47 93 N3 30.11F IN RI CITY SKY/WX TMP DP RH WIND PRES REMARKS PROVIDENCE MOCLDY 54 48 80 N5 30.11S BLOCK ISLAND PTCLDY 57 46 67 S6 30.09F WESTERLY PTCLDY 51 49 92 CALM 30.10F IN MA CITY SKY/WX TMP DP RH WIND PRES REMARKS BOSTON PTCLDY 56 48 74 S6 30.11S WORCESTER PTCLDY 51 45 79 CALM 30.11S WESTFIELD MOCLDY 53 49 86 CALM 30.10S PROVINCETOWN CLOUDY 57 46 67 SE5 30.11F NANTUCKET MOCLDY 58 50 75 SE9 30.10F $$ ANZ330-335-338-340-345-350-353-355-160500- COASTAL MARINE OBSERVATIONS STATION/POSITION TIME SKY/WX TEMP WIND PRES VSBY WAVE AIR SEA DIR/SP/G HT/PER (UTC) (F) (DEG/KT/KT) (MB) (MI) (FT/S) NY HARB ENTRANCE NOT AVBL 4S FIRE IS NOT AVBL 23SW MTP 0400 N/A 1/12 HUDSON CANYON 0400 66 73 110/ 4/ 6 1018.8 2/ 7 EXECUTION ROCKS 0400 66 71 240/ 10/ 14 N/A WESTERN LI SOUND 0400 64 200/ 6/ 8 N/A 0 CENTRAL LI SOUND 0300 65 71 210/ 10/ 14 N/A 1/ 2 EASTERN LI SOUND 0300 65 68 210/ 8/ 12 N/A ROBBINS REEF 0300 63 250/ 5/ 7 1017.9 $$ >>>>>>>>>>>>>>>>>>>>>>>>>>>> KEY <<<<<<<<<<<<<<<<<<<<<<<<<<< > < > SKY/WX - SKY CONDITION/PRESENT WEATHER < > TMP - TEMPERATURE IN FAHRENHEIT < > DP - DEWPOINT IN FAHRENHEIT < > RH - RELATIVE HUMIDITY IN PERCENT < > WIND - DIRECTION AND SPEED IN MPH < > PRES - MEAN SEA LEVEL PRESSURE IN INCHES OF HG < > WCI - WIND CHILL INDEX < > VSB - VISIBILITY IN MILES < > HX - HEAT INDEX < > TC - TEMPERATURE IN CELSIUS < > VRB - VARIABLE WIND DIRECTION < > < >>>>>>>>>>>>>>>>>>>>>>>>>>>> KEY <<<<<<<<<<<<<<<<<<<<<<<<<<<

USA.gov is the U.S. government's official web portal to all federal, state and local government web resources and services.